Muskegon, MI

1:18 PM EST on November 20, 2019 (GMT -0500)
Muskegon County

Weather History for KMKG - September, 2019

Change the Weather History Date:

Saturday, September 7, 2019

  Actual Average Record
Temperature  
Mean Temperature 61 °F 65 °F  
Max Temperature 72 °F 75 °F 92 °F (1933)
Min Temperature 49 °F 56 °F 38 °F (1986)
Degree Days  
Heating Degree Days 4 2  
Month to date heating degree days 15 14  
Since 1 July heating degree days 19 44  
Cooling Degree Days 0 3  
Month to date cooling degree days 8 23  
Year to date cooling degree days 553 530  
Growing Degree Days 11 (Base 50)    
Moisture  
Dew Point 55 °F    
Average Humidity 77    
Maximum Humidity 93    
Minimum Humidity 61    
Precipitation  
Precipitation 0.00 in 0.12 in 1.93 in (2016)
Month to date precipitation 0.07 0.84  
Year to date precipitation 27.20 21.42  
Snow  
Snow 0.00 in 0.00 in - ()
Month to date snowfall 0.0 0.0  
Since 1 July snowfall 0.0 0.0  
Since 1 September snowfall 0.0 0.0  
Snow Depth 0.00 in    
Sea Level Pressure  
Sea Level Pressure 30.02 in    
Wind  
Wind Speed 7 mph (NW)    
Max Wind Speed 15 mph    
Max Gust Speed 23 mph    
Visibility 10 miles    
Events Fog    
T = Trace of Precipitation, MM = Missing Value Source: NWS Daily Summary

Daily Weather History Graph

Daily Weather History Graph

Search for Another Location

Airport or City:

Astronomy

Sep. 07, 2019 Rise Set
Actual Time 7:15 AM EDT 8:09 PM EDT
Civil Twilight 6:46 AM EDT 8:38 PM EDT
Nautical Twilight 6:12 AM EDT 9:12 PM EDT
Astronomical Twilight 5:36 AM EDT 9:48 PM EDT
Moon 4:32 PM EDT (9/7) 12:59 AM EDT (9/7)
Length of Visible Light 13h 52m
Length of Day
12h 54m
Waxing Gibbous, 65% of the Moon is Illuminated
Sep 7
Waxing Gibbous
Sep 14
Full
Sep 21
Last Quarter
Sep 28
New
Oct 5
First Quarter

Hourly Weather History & Observations

Time (EDT) Temp. Dew Point Humidity Pressure Visibility Wind Dir Wind Speed Gust Speed Precip Events Conditions
12:21 AM 62.1 °F 55.9 °F 80% 30.02 in 10.0 mi NNW 6.9 mph - N/A   Mostly Cloudy
12:55 AM 62.1 °F 55.0 °F 78% 30.02 in 10.0 mi NNW 8.1 mph - N/A   Overcast
1:15 AM 60.1 °F 54.0 °F 80% 30.02 in 10.0 mi NNW 8.1 mph - N/A   Scattered Clouds
1:55 AM 59.0 °F 54.0 °F 83% 30.02 in 10.0 mi North 6.9 mph - N/A   Clear
2:55 AM 57.9 °F 54.0 °F 87% 30.01 in 10.0 mi North 5.8 mph - N/A   Clear
3:55 AM 57.0 °F 53.1 °F 87% 30.02 in 10.0 mi NNW 3.5 mph - N/A   Clear
4:55 AM 55.9 °F 53.1 °F 90% 30.02 in 10.0 mi NNW 3.5 mph - N/A   Clear
5:55 AM 52.0 °F 48.9 °F 89% 30.03 in 10.0 mi Calm Calm - N/A Fog Shallow Fog
6:55 AM 51.1 °F 46.9 °F 86% 30.03 in 10.0 mi Calm Calm - N/A Fog Shallow Fog
7:33 AM 50.0 °F 46.9 °F 89% 30.03 in 10.0 mi Calm Calm - N/A Fog Shallow Fog
7:55 AM 51.1 °F 48.0 °F 89% 30.04 in 7.0 mi Calm Calm - N/A Fog Shallow Fog
8:55 AM 60.1 °F 55.0 °F 83% 30.03 in 10.0 mi South 3.5 mph - N/A   Partly Cloudy
9:55 AM 64.0 °F 57.0 °F 78% 30.04 in 10.0 mi SSW 4.6 mph - N/A   Mostly Cloudy
10:55 AM 70.0 °F 57.9 °F 65% 30.02 in 10.0 mi SW 8.1 mph - N/A   Mostly Cloudy
11:55 AM 69.1 °F 57.0 °F 65% 30.02 in 10.0 mi WSW 8.1 mph - N/A   Overcast
12:55 PM 70.0 °F 55.9 °F 61% 30.01 in 10.0 mi SW 15.0 mph - N/A   Mostly Cloudy
1:55 PM 69.1 °F 57.0 °F 65% 30.00 in 10.0 mi WSW 13.8 mph 19.6 mph N/A   Overcast
2:21 PM 68.0 °F 57.0 °F 68% 30.01 in 10.0 mi SW 11.5 mph - N/A   Mostly Cloudy
2:55 PM 69.1 °F 57.9 °F 68% 30.00 in 10.0 mi WSW 12.7 mph - N/A   Mostly Cloudy
3:50 PM 71.6 °F 59.0 °F 64% 30.00 in 10.0 mi WNW 11.5 mph - N/A   Mostly Cloudy
3:55 PM 70.0 °F 59.0 °F 68% 29.99 in 10.0 mi West 11.5 mph - N/A   Mostly Cloudy
4:55 PM 71.1 °F 57.9 °F 63% 30.01 in 10.0 mi WNW 11.5 mph - N/A   Mostly Cloudy
5:55 PM 66.9 °F 55.9 °F 68% 30.01 in 10.0 mi NW 9.2 mph - N/A   Mostly Cloudy
6:55 PM 66.9 °F 55.0 °F 66% 30.03 in 10.0 mi NNW 11.5 mph - N/A   Mostly Cloudy
7:55 PM 66.0 °F 53.1 °F 63% 30.04 in 10.0 mi North 6.9 mph - N/A   Overcast
8:55 PM 64.9 °F 54.0 °F 68% 30.03 in 10.0 mi NNE 3.5 mph - N/A   Overcast
9:55 PM 64.0 °F 54.0 °F 70% 30.04 in 10.0 mi North 8.1 mph - N/A   Overcast
10:55 PM 63.0 °F 54.0 °F 72% 30.05 in 10.0 mi North 4.6 mph - N/A   Overcast
11:55 PM 61.0 °F 54.0 °F 78% 30.06 in 10.0 mi North 6.9 mph - N/A   Clear